Showing default

GJZ 04, 62293

Orbit data source: Space-Track

GJZ 04, 62293 is a payload satellite owned by CASC (CN) in LEO that was launched on Thu, 12 Dec 2024 UTC via a CHANG ZHENG 2D/YZ-3 launch vehicle from the Jiuquan Satellite Launch Center, China (JSC). Payload-class satellites include a variety of spacecraft equipped with specific instruments for various scientific and technological missions. These include communications satellites like Starlink; space stations such as the ISS; scientific satellites like the Hubble; Earth observation satellites from companies like Planet Labs, Umbra, and HawkEye 360; GPS; miniature CubeSats for education and research; and military/defense satellites.

Loading next visibility...
Identifier
62293, 2024-238D
Orbit
LEO
Country
Flag of CNCN / PRC
Related business
Manufacturer
HITSAT
Mission
Operational Civil Communications
Bus & Motor
HARBFLAT, Unknown motor
Mass
~150 kg wet, ~150 kg dry
Launch date (UTC)
2024-12-12 (9 months ago)
Launch vehicle
CHANG ZHENG 2D/YZ-3
Launch site
Jiuquan Satellite Launch Center, China (JSC)
Object type
Payload
Rocket body
Debris
Shape & HBR
Box + 2 Pan, 1.5 m
Radar Cross Section
0.240 m², Large (>1 m²)

Expand to show TLE details & history
Last TLE update: 10 hours ago

TLE from 10 hours ago
0 GJZ 04
1 62293U 24238D   25258.59023520 -.00000057  00000-0  64330-4 0  9992
2 62293  59.9154  22.1640 0022243 117.5559 242.7712 13.75149498 38140
Epoch: 2025-09-15T14:09Z
TLE epoch observation values (Epoch: 2025-09-15T14:09:56.321Z)
Latitude
-0°
Longitude
174.88662°
Altitude
990.145 km
Speed
7.354 km/s
True Right ascension
01h 28m 39s
True Declination
0° 00' 00"
Sunlit
Object was in full shadow at epoch
Visualization orbit readout
Latitude
Unknown
Longitude
Unknown
Altitude
Unknown
Speed
Unknown
Apparent Right ascension
Unknown
Apparent Declination
Unknown
Sunlit
N/A
Visualization observer readout
Local Sidereal Time
16:48:35
Azimuth
Unknown
Elevation
Unknown
Doppler factor
Unknown
Orbital elements
Apogee altitude
996.777 km
Perigee altitude
964.042 km
Semi-major axis
7,358.546 km
Eccentricity
0.00222
Inclination
59.9154°
RAAN
22.164°
Arg. of periapsis
117.5559°
True anomaly
242.54485°
Mean anomaly
242.7712°
Eccentric anomaly
242.65799°
Mean motion
3.43839 °/min
Orbital period
104.7 mins
BSTAR
0.00006433
Loading maneuver chart data...
Computing Atmospheric mass density...
Loading historical data...
Loading historical data...
Loading historical data...
Loading historical data...
Loading historical data...
Loading historical data...
Loading historical data...
Other satellites on launch #238 in the year 2024 (2024-12-12 UTC)

Documentation

Showing up to 5 results
|